Weather History for Garrison, ND

Change the Weather History Date:

Wednesday, December 12, 2012

  Actual Average Record
Temperature  
Mean Temperature 21 °F -  
Max Temperature 28 °F 28 °F 42 °F (2002)
Min Temperature 13 °F 10 °F -13 °F (2000)
Degree Days  
Heating Degree Days 44    
Month to date heating degree days 529  
Moisture  
Dew Point 14 °F    
Average Humidity 86    
Maximum Humidity 96    
Minimum Humidity 75    
Precipitation  
Precipitation 0.00 in - - ()
Month to date precipitation 0.52  
Year to date precipitation 16.59  
Sea Level Pressure  
Sea Level Pressure 29.80 in    
Wind  
Wind Speed 7 mph (NE)    
Max Wind Speed 14 mph    
Max Gust Speed 17 mph    
Averages and records for this station are not official NWS values.
T = Trace of Precipitation, MM = Missing Value Source: NWS Daily Summary

Daily Weather History Graph

Daily Weather History Graph

Search for Another Location

Airport:

Trip Planner

Search our weather history database for the weather conditions in past years. The results will help you decide how hot, cold, wet, or windy it might be!

Date:

Astronomy

Dec. 12, 2012 Rise Set
Actual Time 8:25 AM CST 4:54 PM CST
Civil Twilight 7:49 AM CST 5:29 PM CST
Nautical Twilight 7:10 AM CST 6:09 PM CST
Astronomical Twilight 6:32 AM CST 6:46 PM CST
Moon 7:30 AM CST (12/12) 4:34 PM CST (12/12)
Length of Visible Light 9h 40m
Length of Day
8h 28m
Waning Crescent, 1% of the Moon is Illuminated
Dec 12
Waning Crescent
Dec 13
New
Dec 19
First Quarter
Dec 28
Full
Jan 4
Last Quarter

Hourly Weather History & Observations

Time (CST) Temp. Windchill Dew Point Humidity Pressure Visibility Wind Dir Wind Speed Gust Speed Precip Events Conditions
12:52 AM 25.0 °F 15.5 °F 19.9 °F 81% 29.60 in - South 9.2 mph - N/A   Unknown
1:52 AM 28.0 °F 20.0 °F 21.9 °F 78% 29.59 in - South 8.1 mph - N/A   Unknown
2:52 AM 25.0 °F 19.3 °F 21.0 °F 85% 29.60 in - South 4.6 mph - N/A   Unknown
3:52 AM 27.0 °F - 21.9 °F 81% 29.61 in - Calm Calm - N/A   Unknown
4:52 AM 25.0 °F 19.3 °F 21.9 °F 88% 29.62 in - WSW 4.6 mph - N/A   Unknown
5:52 AM 19.9 °F 11.1 °F 18.0 °F 92% 29.64 in - NW 6.9 mph - N/A   Unknown
6:52 AM 21.0 °F 12.4 °F 18.0 °F 88% 29.66 in - WNW 6.9 mph - N/A   Unknown
7:52 AM 18.0 °F 5.4 °F 15.1 °F 88% 29.69 in - NNW 11.5 mph - N/A   Unknown
8:52 AM 14.0 °F 3.9 °F 10.9 °F 88% 29.73 in - North 6.9 mph - N/A   Unknown
9:52 AM 15.1 °F 6.4 °F 14.0 °F 95% 29.76 in - Variable 5.8 mph - N/A   Unknown
10:52 AM 17.1 °F 7.6 °F 14.0 °F 88% 29.79 in - NNE 6.9 mph - N/A   Unknown
11:52 AM 16.0 °F 5.3 °F 12.9 °F 88% 29.81 in - NE 8.1 mph - N/A   Unknown
12:52 PM 16.0 °F 6.3 °F 12.9 °F 88% 29.81 in - NNE 6.9 mph - N/A   Unknown
1:52 PM 16.0 °F 7.4 °F 14.0 °F 92% 29.83 in - East 5.8 mph - N/A   Unknown
2:52 PM 16.0 °F 8.8 °F 12.9 °F 88% 29.84 in - NE 4.6 mph - N/A   Unknown
3:52 PM 15.1 °F 6.4 °F 12.9 °F 91% 29.86 in - ENE 5.8 mph - N/A   Unknown
4:52 PM 14.0 °F 5.1 °F 12.0 °F 92% 29.88 in - NE 5.8 mph - N/A   Unknown
5:52 PM 12.9 °F 2.6 °F 10.0 °F 88% 29.91 in - NE 6.9 mph - N/A   Unknown
6:52 PM 12.9 °F 3.8 °F 10.0 °F 88% 29.94 in - East 5.8 mph - N/A   Unknown
7:52 PM 12.0 °F -0.4 °F 9.0 °F 88% 29.95 in - ENE 9.2 mph - N/A   Unknown
8:52 PM 10.9 °F 0.2 °F 9.0 °F 92% 29.99 in - ENE 6.9 mph - N/A   Unknown
9:52 PM 10.9 °F -0.8 °F 9.0 °F 92% 30.00 in - ENE 8.1 mph - N/A   Unknown
10:52 PM 10.0 °F 1.8 °F 7.0 °F 87% 30.01 in - NE 4.6 mph - N/A   Unknown
11:52 PM 7.0 °F -4.5 °F 3.9 °F 87% 30.05 in - NNE 6.9 mph - N/A   Unknown